Weather in Sovetskiy

Russia / Vologda Oblast     59°55′27″N   42°43′07″E
temp.,
°C
wind,
m/s
gust,
m/s
humid.,
%
clouds,
%
prec.,
mm/h
press.,
hPa
HPBL,
m
16 june, wed
wed1600:00+15sw26830 0.0 1008109
03:00+12w23960 0.0 100845
06:00+16nw256816 0.0 1008283
09:00+15wnw3568100 0.0 1009342
12:00+20wnw364164 0.0 10092292
15:00+21wnw67285 0.0 10102746
18:00+20nw47365 0.0 10111979
21:00+13wnw26585 0.0 1013105
17 june, thu
thu1700:00+11wnw246398 0.0 101465
03:00+9wnw311685 0.0 1016242
06:00+12nw411614 0.0 1017515
09:00+17wnw594272 0.0 10182282
12:00+18nw51036100 0.0 10192658
15:00+18n373783 0.0 10201908
18:00+19nnw47373 0.0 10212023
21:00+12nnw22610 0.0 102422
18 june, fri
fri1800:00+9ne22635 0.0 102517
03:00+7s1170100 0.0 102613
06:00+12sw255810 0.0 1026174
09:00+18wsw463998 0.0 1025768
12:00+22wsw473899 0.0 10231425
15:00+24wsw583753 0.0 10221701
18:00+24wsw484873 0.0 10201318
21:00+19sw4136788 0.0 1020400
19 june, sat
sat1900:00+16wsw4137811 0.0 1020303
03:00+14wsw310915 0.0 1020184
06:00+19wsw310710 0.0 1020315
09:00+24w59482 0.0 10201169
12:00+27w68361 0.0 10191888
15:00+29w58350 0.0 10182168
18:00+28w37440 0.0 10181195
21:00+20wsw36750 0.0 1019100
20 june, sun
sun2000:00+17w25810 0.0 102084
03:00+16wsw23860 0.0 102149
06:00+20wsw26720 0.0 1021195
09:00+26wsw47480 0.0 10201081
12:00+28wsw573811 0.0 10192109
15:00+30wsw573547 0.0 10182364
18:00+28wsw474862 0.0 10181354
21:00+22sw311732 0.0 1018313